Home   Weather   Kriens   Past weeks

Flag for Switzerland Past Weather in Kriens, Lucerne, Switzerland — Yesterday and Last 2 Weeks

Now
68 °F

Mild.


Feels Like: 68 °F
Forecast: 60 / 80 °F
Wind: 3 mph from Southwest

Location: Giswil

Current Time: Jul 21, 2017 at 12:53:50 am

Latest Report: Jul 21, 2017 at 12:00 am


Visibility: N/A

Pressure: 29.97 "Hg

Humidity: 88%

Dew Point: 64 °F

Location of KriensLocation

Past Weather in Kriens — Graph

°F

Kriens Temperature Yesterday

Maximum temperature yesterday: 74 °F (at 5:00 pm)
Minimum temperature yesterday: 61 °F (at 12:00 am)
Average temperature yesterday: 67 °F

High & Low Weather Summary for the Past Weeks

 TemperatureHumidityPressure
High89 °F (Jul 6, 4:00 pm)100% (Jul 8, 10:00 pm)30.30 "Hg (Jul 8, 10:00 pm)
Low50 °F (Jul 16, 3:00 am)31% (Jul 6, 4:00 pm)29.82 "Hg (Jul 10, 6:00 pm)
Average68 °F77%30.04 "Hg
* Reported Jul 5 11:00 pm — Jul 20 11:00 pm, Kriens. Weather by CustomWeather, © 2017

Note: Actual official high and low records may vary slightly from our data, if they occured in-between our weather recording intervals... More about our weather records

Advertising

Kriens Weather History for the Previous 24 Hours

Scroll right to see more
 ConditionsComfort  
Time TempWeatherWind HumidityBarometerVisibility
11:00 pm
Thu, Jul 20
67 °FMild.1 mph93%29.96 "HgN/A
10:00 pm67 °FMild.1 mph94%29.96 "HgN/A
9:00 pm70 °FMild.1 mph82%29.92 "HgN/A
8:00 pm72 °FMild.1 mph86%29.90 "HgN/A
7:00 pm74 °FMild.No wind65%29.88 "HgN/A
6:00 pm74 °FMild.2 mph67%29.90 "HgN/A
5:00 pm74 °FMild.1 mph63%29.91 "HgN/A
4:00 pm72 °FMild.1 mph67%29.93 "HgN/A
3:00 pm72 °FMild.2 mph64%29.94 "HgN/A
1:00 pm67 °FMild.3 mph78%29.99 "HgN/A
12:00 pm65 °FMild.8 mph83%29.99 "HgN/A
11:00 am66 °FMild.2 mph98%29.97 "HgN/A
10:00 am66 °FMild.1 mph96%29.95 "HgN/A
9:00 am67 °FMild.1 mph96%29.94 "HgN/A
8:00 am65 °FMild.1 mph98%29.95 "HgN/A
7:00 am63 °FMild.1 mph100%29.96 "HgN/A
6:00 am63 °FMild.1 mph99%29.97 "HgN/A
5:00 am64 °FMild.2 mph99%29.98 "HgN/A
4:00 am63 °FMild.2 mph99%29.97 "HgN/A
3:00 am62 °FCool.1 mph100%29.96 "HgN/A
2:00 am62 °FCool.2 mph99%29.96 "HgN/A
1:00 am62 °FCool.1 mph99%29.96 "HgN/A
12:00 am61 °FCool.No wind100%29.96 "HgN/A
Weather by CustomWeather, © 2017

See weather overviewHow to use our weather pages